Wind_Gust
9 9 11 16 3 5 5 9 11 10 5 2 3 2 7 9 16 5 5 10 1 7 9 10 7 8 11 9 14 18 17 17 12 13 16 15 14 15 17 17 18 15 16 13 14 12 12 12 12 12 12 12 11 10 12 14 14 11 14 13 10 9 9 12 12 11 13 13 12 8 9 8 8 10 7 7 7 7 8 8 8 7 7 6 7 7
5 8 18 6 9 9 10 9 5 3 1 4 4 4 12 6 18 9 7 6 5 7 9 5 5 11 14 11 13 12 18 20 19 19 19 17 16 16 19 20 18 15 9 12 14 13 13 14 14 13 13 13 15 13 14 15 14 12 14 15 12 10 10 10 11 11 11 10 12 11 9 9 9 10 10 7 6 7 7 7 7 7 6 6 7 7
5 20 4 11 12 6 6 6 4 6 4 2 6 5 8 14 9 11 8 4 2 8 14 3 3 14 15 12 7 16 25 28 28 27 28 25 20 20 22 21 17 17 19 18 15 12 16 16 16 15 14 12 13 13 13 10 11 12 13 13 12 12 11 10 11 12 11 8 9 9 10 10 8 4 5 8 7 7 8 6 6 6 6 7 6 6
10 12 12 11 5 5 2 5 6 3 2 4 3 5 18 7 7 17 10 2 3 6 11 11 11 19 14 8 12 19 27 25 26 26 25 27 28 25 28 26 24 23 27 25 23 18 19 19 17 15 15 14 11 12 10 9 11 12 11 11 12 13 10 11 10 10 9 9 7 7 10 8 7 8 7 9 8 8 8 7 6 5 7 7 7 6
17 6 1 5 7 9 8 5 5 4 9 4 7 9 10 4 8 13 13 10 8 8 4 5 7 16 8 7 7 10 13 14 17 8 5 6 11 11 10 12 18 23 22 20 17 18 20 22 21 20 16 11 11 11 12 10 11 13 13 11 12 12 12 10 10 11 12 13 11 11 10 10 11 10 8 9 8 6 5 5 4 7 5 6 8 6
13 13 7 6 2 4 6 5 7 9 8 7 10 16 11 9 12 10 6 8 16 14 4 3 14 15 8 10 13 11 10 14 8 16 17 17 17 20 21 19 18 19 21 25 23 23 26 23 16 15 14 11 10 12 11 10 11 13 13 11 11 11 10 12 11 12 13 13 15 14 14 11 9 9 9 8 9 5 6 8 3 2 3 6 6 6
15 5 11 10 6 5 6 9 7 11 11 5 17 14 17 17 12 8 7 5 5 8 5 4 6 24 11 7 8 9 8 8 7 14 13 16 19 20 22 21 23 25 22 18 17 18 19 18 16 16 16 13 11 9 9 9 10 11 10 11 11 11 11 11 11 11 13 12 12 12 12 11 13 13 6 3 5 9 4 5 5 4 3 2 7 6
7 5 6 4 6 7 4 9 11 17 11 14 11 14 12 8 7 11 7 8 14 6 9 4 7 12 21 13 5 8 3 8 8 11 16 19 19 20 22 20 21 25 23 25 24 21 22 20 19 21 19 12 9 9 9 9 8 10 11 11 11 11 11 10 11 10 12 14 11 10 9 11 12 12 10 8 7 5 7 8 5 5 4 4 5 8
7 5 7 5 4 7 15 12 6 13 17 18 4 14 12 14 14 7 7 8 6 3 20 6 1 7 11 12 7 6 7 6 11 16 19 19 21 22 22 23 25 25 23 22 23 25 24 22 21 20 13 10 11 11 12 10 8 8 9 10 10 11 10 10 9 11 9 12 12 12 12 10 7 10 10 8 7 9 7 9 4 6 4 5 5 5
8 8 14 13 12 13 13 6 15 18 12 14 7 4 4 4 3 6 6 5 4 4 14 11 5 9 15 11 6 7 2 11 15 15 17 21 21 22 25 20 21 21 18 19 22 21 20 19 15 8 10 10 10 10 11 10 9 9 8 10 10 10 10 8 8 9 8 10 12 13 11 13 10 10 9 9 10 8 7 10 6 5 7 6 6 6
6 4 10 11 14 16 8 9 16 19 22 5 10 4 4 10 5 5 8 6 6 8 17 11 6 6 12 7 6 7 11 7 3 7 10 13 14 15 17 19 18 21 21 20 19 17 16 10 8 10 11 10 10 10 12 12 12 11 10 9 11 9 9 8 8 8 9 9 11 13 12 14 13 11 13 12 9 8 7 11 6 7 5 4 5 4
5 3 6 11 10 10 5 7 8 18 8 4 6 5 5 3 9 6 8 9 10 16 18 7 7 8 10 7 11 12 8 7 13 19 21 21 19 19 21 18 15 15 18 16 16 13 12 10 8 9 11 11 10 11 12 12 13 13 11 10 10 10 11 9 8 9 9 11 10 11 13 14 15 15 13 14 12 10 10 9 10 5 7 4 4 5
9 11 9 10 8 15 10 7 9 2 5 8 7 8 7 8 6 10 6 11 13 20 9 2 8 6 11 11 3 11 14 10 14 20 25 26 23 19 17 17 19 14 15 12 12 11 13 12 10 7 7 10 10 10 12 14 13 13 13 12 11 10 9 10 9 9 9 9 10 12 12 12 14 14 13 13 12 9 11 10 10 8 8 5 6 3
15 6 4 10 6 11 10 11 7 3 6 11 12 12 10 8 5 6 9 8 12 15 8 3 2 8 8 8 6 13 16 14 13 16 9 7 14 19 15 15 14 12 11 12 22 20 14 8 3 5 6 7 10 9 13 15 14 14 14 13 12 9 9 10 9 10 9 9 10 10 12 13 14 13 14 13 15 11 11 12 13 11 11 10 9 7
5 12 13 8 10 6 14 20 21 14 15 19 8 22 17 19 17 11 11 13 15 14 6 5 7 11 4 9 8 11 13 15 12 11 6 9 10 10 14 16 18 18 18 19 15 14 5 4 3 6 7 8 10 14 12 12 13 15 14 14 12 11 8 10 11 11 11 10 10 9 11 13 12 15 14 13 14 14 12 8 11 9 8 10 8 9
9 15 15 10 3 4 8 6 6 7 6 4 7 11 12 13 14 10 13 8 6 6 5 7 11 4 10 5 7 6 8 9 8 10 13 13 13 15 17 18 16 16 19 20 18 12 9 8 6 7 8 9 12 13 10 12 13 14 14 11 10 10 10 10 9 9 10 9 10 9 10 10 11 11 11 10 9 10 11 11 11 10 8 7 8 4
4 13 6 11 2 6 9 6 7 13 15 10 9 13 16 7 15 10 4 3 6 9 8 5 13 10 13 5 4 7 7 9 9 10 11 13 14 17 17 16 13 13 13 18 18 14 12 9 6 8 8 10 14 17 18 15 9 12 15 12 10 8 7 14 9 8 7 9 10 9 10 11 11 14 14 14 11 10 7 8 8 10 7 5 5 6
9 14 7 4 12 7 3 3 3 3 11 16 10 15 5 5 10 13 13 6 6 8 13 4 4 10 8 11 6 7 10 9 7 8 8 8 10 15 15 17 17 21 19 8 11 11 10 8 8 7 6 10 15 18 15 11 7 11 13 16 13 11 13 12 10 8 7 9 9 10 10 10 14 14 12 12 12 9 10 5 6 7 8 6 5 5
5 13 13 5 9 11 7 2 7 2 2 12 11 11 14 9 6 7 13 5 6 10 8 5 2 8 7 10 8 9 14 14 13 12 12 12 10 9 10 14 17 16 14 13 10 11 10 9 9 9 8 8 16 15 12 11 11 14 14 15 14 17 17 17 16 9 5 5 10 11 12 12 9 8 10 10 10 10 10 9 7 6 7 7 6 8
3 8 19 6 4 5 5 9 6 8 7 4 5 8 3 11 6 11 16 10 15 8 5 8 2 11 12 9 3 9 11 8 9 11 15 16 18 18 22 16 16 16 15 16 14 13 12 10 9 10 13 15 18 18 16 15 17 16 15 16 18 20 18 18 17 14 10 7 10 9 9 7 10 11 12 11 12 10 9 9 8 7 6 8 8 8
7 4 11 13 4 5 6 9 4 10 8 4 6 5 4 6 7 11 5 5 8 14 11 11 8 16 9 5 7 9 8 5 7 9 10 14 16 20 20 16 17 17 16 15 13 13 11 10 11 11 9 9 11 16 17 16 18 16 17 16 14 17 18 17 18 15 10 10 8 11 12 11 9 8 8 9 9 11 9 8 8 7 8 8 7 9
10 5 9 9 12 6 9 5 4 2 7 10 17 11 14 11 8 5 9 3 6 9 11 12 15 15 10 5 5 6 6 6 7 9 10 10 17 24 22 18 16 14 11 13 10 10 9 9 8 10 10 7 9 12 14 13 15 13 16 17 16 16 15 14 14 15 13 9 12 11 9 9 9 9 9 10 10 11 10 9 8 7 7 8 7 9
9 9 5 5 5 3 6 6 3 4 6 3 12 5 6 5 12 10 9 8 5 4 8 7 7 9 7 4 4 4 5 7 9 11 13 11 14 16 21 20 17 13 12 11 12 10 8 8 9 10 11 9 10 7 11 13 17 16 19 19 18 20 17 15 14 11 13 12 10 11 10 12 11 10 10 11 10 11 11 9 7 7 9 9 8 6
9 10 7 6 9 10 8 7 5 4 1 5 9 6 7 5 7 11 9 11 14 4 4 5 7 12 6 8 6 7 5 6 7 12 16 14 11 12 14 16 16 13 12 10 10 11 9 9 7 9 11 8 10 13 13 12 16 19 18 17 15 16 16 14 14 14 13 13 12 11 12 11 10 11 11 12 11 11 8 8 8 7 7 8 9 11
13 7 9 4 6 13 13 14 10 7 10 8 3 6 5 7 6 4 9 4 9 7 8 11 10 8 4 4 8 9 8 10 12 11 15 18 13 10 12 14 15 14 14 11 12 12 10 8 6 6 8 10 10 12 14 17 16 12 13 14 15 16 17 15 13 14 12 13 13 11 13 11 10 9 7 7 8 8 9 8 8 6 8 9 8 8
11 8 8 7 9 9 10 9 10 6 3 9 2 9 8 7 9 5 5 5 9 4 4 9 9 11 6 8 10 9 10 12 11 11 10 9 16 14 15 16 17 17 17 15 14 16 15 13 11 9 7 7 8 11 12 9 9 9 8 8 8 14 13 13 12 13 13 10 12 10 10 11 11 11 9 7 7 7 7 7 8 6 5 7 9 7
11 6 7 9 14 17 13 9 7 3 6 4 8 8 12 6 6 10 12 9 11 8 8 8 7 6 8 9 8 8 10 11 12 15 17 17 17 17 16 16 16 16 17 18 17 16 17 18 18 17 15 13 13 12 12 9 9 11 11 9 7 8 8 8 10 11 12 12 11 12 10 10 11 11 10 9 9 8 8 7 3 3 6 5 7 9
9 10 3 10 7 2 4 6 7 3 4 4 7 11 10 11 8 6 5 6 8 17 4 8 8 10 8 9 9 9 11 15 17 17 17 17 16 16 15 18 18 21 18 19 20 19 18 16 16 14 13 13 14 15 14 12 10 9 9 10 9 9 9 7 8 11 12 12 12 10 9 9 10 11 11 11 11 11 11 10 8 5 5 3 5 6
9 9 1 5 5 6 5 8 8 10 7 7 9 12 16 15 10 8 4 3 4 3 12 11 12 12 10 13 13 14 15 15 15 16 14 15 16 16 16 20 22 21 20 22 18 18 18 17 17 14 10 14 13 13 14 15 12 11 11 12 11 10 10 9 9 8 8 8 8 7 7 7 9 9 11 11 10 10 16 10 9 6 4 4 2 3
13 4 2 3 5 12 12 11 12 12 4 7 15 15 15 15 14 10 8 5 4 4 9 16 12 12 10 11 12 12 10 14 15 12 15 17 16 15 17 17 17 17 19 19 18 16 15 17 16 14 11 14 12 12 13 14 15 14 12 12 11 11 11 12 12 12 11 11 10 11 12 11 9 12 8 12 11 11 13 4 5 5 4 6 5 3
8 4 4 3 6 6 10 10 11 11 5 9 10 16 16 13 10 12 8 7 11 16 14 15 14 9 9 8 10 9 9 13 19 19 16 14 14 15 17 17 16 17 16 15 16 15 14 18 18 15 16 18 17 16 18 17 17 17 17 16 15 14 13 15 15 13 14 13 14 15 14 12 11 13 12 12 8 7 8 8 7 10 9 7 4 2
10 3 4 4 7 4 6 9 8 8 6 9 13 20 19 14 10 9 6 8 5 11 11 13 12 8 7 10 13 14 15 20 19 16 15 15 14 14 18 17 16 16 16 15 14 14 17 19 19 18 18 18 19 19 18 18 18 20 18 17 18 17 18 20 18 17 16 13 14 17 15 12 13 15 11 10 8 9 12 12 12 9 6 5 7 7
4 13 6 5 8 4 5 4 7 5 6 7 11 13 15 9 5 3 4 9 8 6 18 16 8 10 12 10 16 15 17 19 18 16 15 17 15 14 16 17 16 16 16 15 16 17 16 18 18 16 17 17 21 23 18 16 21 19 16 19 15 19 21 21 20 20 19 18 18 15 15 13 14 13 12 10 9 10 12 13 12 9 8 8 6 7
3 9 7 3 8 3 5 6 5 6 8 10 3 5 6 8 8 7 8 9 12 7 7 9 11 13 12 11 15 15 19 18 17 16 15 12 13 16 17 16 16 15 16 18 17 17 16 17 16 17 18 18 18 19 16 20 22 17 17 19 19 22 20 21 21 21 21 21 20 18 16 15 16 16 14 13 13 14 13 13 11 7 6 7 8 9
7 8 6 4 10 6 2 5 7 8 9 3 2 7 4 9 14 16 11 12 11 11 17 20 16 16 15 14 14 15 18 18 18 18 16 16 13 14 15 16 17 16 17 16 16 17 17 16 16 18 19 19 18 16 17 21 17 17 20 19 22 20 22 21 21 21 20 21 19 19 19 18 17 18 15 15 15 17 16 13 12 13 12 11 10 11
10 12 8 8 7 6 4 4 8 4 3 5 3 7 5 3 1 3 9 13 12 9 13 19 16 16 15 15 14 13 18 17 19 18 14 13 13 13 15 16 15 16 17 15 16 16 17 16 17 18 18 16 18 19 20 19 15 20 19 19 21 20 21 21 21 20 19 21 18 17 17 19 19 18 16 15 16 17 16 15 14 13 11 11 13 10
13 10 9 6 3 8 5 5 4 2 2 3 5 9 14 8 10 5 5 7 6 3 6 19 18 17 17 15 14 12 14 20 23 19 14 16 14 14 16 16 15 16 16 16 16 15 13 13 15 16 18 18 19 19 19 17 17 17 20 21 19 20 18 21 21 18 18 17 16 15 15 16 19 17 17 16 18 18 16 15 14 13 11 13 12 12
5 4 8 10 5 7 9 7 4 2 5 3 2 3 2 5 3 5 2 5 4 10 10 15 19 19 17 16 13 16 12 24 18 10 10 12 13 14 14 14 13 13 14 15 15 15 14 13 14 15 19 19 19 17 15 16 19 18 20 18 17 20 20 21 19 15 15 16 14 14 15 16 16 17 16 16 16 14 13 13 13 14 12 14 12 14
12 14 10 11 6 5 5 9 6 7 4 2 11 13 10 7 6 2 3 3 2 9 10 12 17 14 18 18 17 9 7 13 9 6 4 6 8 10 14 13 13 13 14 16 16 16 15 14 15 15 17 19 19 15 13 14 18 20 19 16 16 17 19 18 15 13 14 13 12 13 13 14 15 15 16 16 14 13 13 12 11 9 9 11 10 12
19 13 11 15 8 6 6 8 4 3 5 5 12 16 16 8 2 3 6 7 8 10 12 12 16 16 13 10 6 4 7 21 17 12 8 6 6 7 11 14 13 15 15 15 16 15 14 13 18 19 19 19 15 11 13 14 18 18 15 13 13 18 17 14 12 12 12 13 13 13 14 14 14 14 14 13 11 12 11 9 11 12 10 9 9 9
13 12 14 7 4 8 8 4 5 5 4 6 12 19 18 10 3 4 7 6 7 10 10 8 12 11 9 8 3 6 6 10 16 15 10 9 12 12 12 13 13 14 14 13 12 11 15 15 16 16 15 13 12 11 11 13 17 16 13 11 15 16 13 10 11 12 12 13 14 14 13 12 12 14 13 11 11 10 10 10 10 9 10 9 9 10
9 5 5 6 12 6 2 8 4 3 2 10 18 14 11 5 5 6 6 4 12 12 10 12 14 8 5 4 7 13 17 21 19 14 11 9 10 11 13 13 13 12 10 10 11 13 15 14 13 13 13 10 11 10 10 13 17 14 12 13 15 11 9 9 10 10 11 13 13 13 13 13 12 12 12 10 9 11 12 9 9 10 8 8 8 10
6 9 4 5 6 5 10 9 6 7 4 14 22 9 7 5 5 7 6 5 6 12 14 11 9 8 9 12 14 19 20 17 13 13 12 12 13 13 12 13 13 13 12 12 12 9 13 13 13 13 10 10 10 9 9 12 15 12 12 16 11 8 9 9 10 11 12 12 12 11 11 11 11 11 11 11 10 10 11 9 10 10 9 9 8 8
3 10 4 4 4 6 8 8 5 5 11 13 10 7 10 6 8 7 4 5 5 8 10 9 5 8 14 18 18 16 15 16 12 13 13 11 11 11 11 10 10 11 12 10 10 9 10 12 10 10 9 9 8 8 8 12 15 14 16 14 8 9 10 11 11 11 12 12 11 10 10 9 9 9 9 9 9 9 9 8 7 8 9 8 9 9
13 10 6 9 5 8 5 4 3 3 6 8 3 5 6 8 6 3 7 6 9 5 4 11 10 11 15 19 17 16 16 9 10 9 12 9 10 10 11 10 11 12 12 12 10 8 8 11 10 10 10 9 8 8 9 9 14 14 16 8 7 9 10 10 10 10 11 10 10 10 8 9 10 9 8 8 8 9 9 8 7 8 7 7 8 7
2 4 2 12 8 5 9 4 2 4 6 7 6 5 7 9 11 10 10 13 10 9 9 14 11 13 13 11 21 12 13 13 13 11 11 11 12 9 10 10 10 9 9 10 9 8 9 8 8 10 11 9 7 8 8 8 11 16 9 4 7 7 9 9 11 12 11 10 9 9 8 9 8 8 8 8 8 7 7 7 8 8 7 7 7 6
5 3 7 11 3 7 7 7 9 8 6 7 7 11 12 11 11 11 15 15 13 14 17 14 13 12 11 10 15 16 13 12 13 11 11 13 13 11 10 11 9 10 11 10 7 8 7 7 10 9 9 9 5 7 7 7 8 8 5 6 6 8 9 10 11 10 9 9 9 8 8 9 8 8 9 8 9 8 8 7 8 7 7 7 7 7
5 3 14 5 6 9 4 2 5 4 2 5 7 11 13 13 14 14 14 13 15 16 16 15 14 15 10 13 11 13 10 8 12 11 11 10 11 10 10 10 9 7 5 7 7 9 8 9 8 7 7 7 4 4 5 6 6 4 4 5 5 5 8 8 8 9 8 8 7 9 8 9 8 10 10 11 10 12 12 11 10 11 12 11 11 11
4 6 5 3 9 4 2 1 3 5 10 10 9 9 8 10 13 14 14 17 18 20 18 17 14 11 10 10 8 11 12 9 8 8 10 8 8 7 7 7 6 8 8 9 6 8 10 8 8 5 5 3 2 3 5 4 4 4 5 5 5 6 7 9 7 8 7 6 8 9 7 8 8 8 9 9 10 9 6 5 9 9 9 8 3 2
8 10 2 7 8 2 6 5 4 7 5 3 4 5 8 8 13 14 12 15 16 17 15 14 11 9 9 6 7 12 13 9 8 10 9 6 6 5 6 6 6 6 5 3 5 7 8 8 9 7 5 1 1 1 2 2 3 5 4 3 3 4 6 5 7 7 6 6 7 5 7 7 8 7 8 8 9 10 11 8 8 5 4 8 10 9
5 6 8 6 4 6 7 8 5 4 6 3 4 3 4 4 11 13 13 12 10 12 15 16 13 10 9 7 4 14 12 13 8 9 9 6 3 2 4 7 7 5 4 4 6 6 8 7 8 7 6 2 1 2 1 1 1 1 2 1 1 3 6 6 7 6 5 5 4 4 4 6 8 8 8 8 9 9 9 10 13 10 10 7 9 9
Wind_Speed
4 4 4 8 2 3 3 6 7 7 3 1 1 1 4 5 7 1 3 6 0 2 5 6 5 5 7 6 8 11 11 11 8 8 9 9 8 9 9 10 9 9 10 7 8 8 8 8 7 7 6 7 7 7 8 9 9 7 8 8 6 5 6 6 6 6 7 7 6 5 5 5 5 5 4 4 4 4 4 5 5 4 4 4 4 4
2 4 9 4 6 6 7 6 3 2 0 2 2 3 7 3 9 1 2 3 2 3 5 2 3 7 9 7 7 8 11 13 12 11 11 11 10 9 12 11 10 9 4 7 8 9 9 9 9 7 7 8 10 8 9 9 8 8 9 10 8 6 6 6 6 6 6 5 6 5 5 5 5 6 5 4 4 4 4 5 5 4 4 4 4 4
1 9 1 8 8 4 3 4 3 4 2 1 3 3 5 7 4 6 5 2 1 4 8 1 2 9 10 7 4 9 16 15 17 17 17 15 11 10 12 11 10 9 10 10 10 8 10 11 11 8 7 6 8 8 7 6 7 8 8 8 8 7 7 6 7 7 6 4 5 5 5 6 4 1 2 4 4 4 5 4 4 4 3 4 4 4
3 5 8 6 4 4 1 3 4 3 1 3 1 1 9 2 3 6 5 1 1 1 4 6 5 10 9 5 6 11 16 14 16 17 16 16 16 15 17 15 14 14 14 16 15 13 12 11 10 8 8 7 6 6 6 6 7 7 6 7 8 8 6 6 6 6 6 5 4 5 6 5 4 4 3 5 5 5 5 4 4 3 4 4 4 4
8 3 1 4 4 6 5 3 4 2 4 3 4 5 4 0 4 7 5 4 4 3 2 3 3 7 5 4 3 5 8 6 8 4 3 5 7 7 4 7 11 16 14 12 12 11 13 13 13 11 7 6 6 6 7 6 7 7 8 6 8 7 7 6 6 7 7 7 7 6 6 6 6 5 4 5 5 4 3 3 3 4 3 4 5 4
8 7 3 4 1 2 3 2 4 5 5 3 6 11 7 5 7 6 2 4 6 5 1 1 4 4 4 6 7 7 2 8 3 10 10 11 10 11 12 12 11 11 12 16 16 15 16 13 9 8 8 7 6 7 6 6 6 8 7 7 7 6 6 7 7 8 8 7 8 8 7 6 5 5 5 5 5 3 4 4 1 2 3 4 4 4
6 1 7 6 4 3 3 4 4 6 6 0 7 9 11 10 8 6 4 2 1 1 1 2 2 6 4 2 5 5 3 5 1 9 9 10 11 12 12 13 13 14 13 11 9 10 12 11 10 9 9 7 7 5 5 5 6 8 6 7 7 7 6 6 7 7 7 7 7 7 7 7 7 7 2 2 3 5 2 3 3 3 2 2 4 4
2 2 4 2 4 4 2 5 4 10 6 4 5 10 7 5 5 6 1 4 5 2 4 2 3 3 7 6 3 6 1 3 3 6 9 11 12 12 13 13 14 14 14 14 15 13 13 12 12 12 8 6 6 6 6 5 5 7 7 7 7 6 7 6 7 7 7 8 6 6 6 6 7 7 6 5 4 3 4 5 3 3 2 2 4 5
5 2 4 3 2 3 7 5 4 9 7 6 3 9 8 10 9 4 4 4 2 1 8 2 0 0 3 5 4 1 3 4 7 9 11 13 14 14 15 13 17 16 15 14 12 14 15 14 11 9 7 6 7 7 7 6 5 4 6 6 6 7 6 5 5 7 6 7 7 7 7 6 3 5 6 5 4 5 4 6 3 4 3 3 3 4
2 5 9 8 7 6 6 4 9 11 5 5 5 2 2 2 2 4 4 3 1 1 7 4 2 2 6 5 3 3 1 5 7 8 9 12 14 14 14 13 14 12 10 10 12 12 11 9 5 5 7 7 6 6 7 6 5 5 5 6 7 6 6 5 4 5 5 7 7 7 7 8 6 6 5 5 6 5 5 6 4 3 4 3 4 4
2 2 7 5 6 7 5 6 10 12 11 3 6 3 2 6 3 3 4 2 3 2 9 6 4 2 4 2 3 3 5 3 2 4 5 8 9 10 11 13 11 13 12 10 11 9 7 4 6 7 7 7 6 6 7 6 6 6 6 6 7 6 6 5 5 5 6 6 7 8 8 9 9 7 8 7 5 5 5 7 4 4 4 3 4 3
1 0 1 2 6 2 3 1 3 8 3 1 0 1 2 1 5 3 3 4 2 5 9 2 4 5 4 3 6 7 5 4 6 9 12 13 13 11 12 9 8 9 10 7 7 7 7 6 5 6 7 7 7 7 7 7 7 7 6 6 7 7 7 6 5 6 6 6 6 7 8 9 10 9 8 8 8 6 6 6 6 4 4 3 3 3
4 5 3 5 2 10 3 3 4 0 2 4 4 3 2 2 2 1 2 2 5 6 4 2 5 2 5 4 2 6 8 7 8 9 12 15 14 11 10 10 8 7 8 4 3 5 4 1 1 3 5 7 7 7 8 9 8 8 8 8 8 7 7 7 6 6 6 6 6 8 8 8 8 9 8 8 8 6 7 6 6 5 5 3 4 2
6 2 1 5 3 5 5 4 1 1 2 6 6 5 5 1 1 1 3 1 5 7 4 1 0 1 2 4 3 8 10 8 8 8 5 3 5 6 5 8 9 7 7 7 9 8 4 5 1 3 2 5 6 6 7 9 9 8 8 8 7 6 6 7 6 7 6 5 6 7 8 8 8 8 8 8 8 7 7 7 7 7 7 6 5 4
1 2 5 3 2 1 6 10 11 7 8 9 3 11 8 8 5 3 3 4 6 8 2 3 2 3 2 3 1 6 8 9 6 7 4 4 6 7 9 9 11 11 11 10 9 9 3 0 2 4 4 5 6 8 5 7 8 9 8 8 8 7 6 7 8 7 7 6 6 6 6 8 7 9 8 8 8 8 7 5 7 5 5 6 5 5
5 5 6 5 1 2 4 3 3 4 4 1 2 5 6 5 6 3 5 3 2 1 1 1 2 2 2 2 4 1 5 5 4 4 6 7 8 9 11 9 9 9 9 10 11 8 6 6 4 4 5 5 7 7 4 4 7 8 8 7 6 6 7 7 7 7 7 6 5 5 6 6 7 7 7 6 5 6 6 7 6 6 5 4 5 3
1 2 2 7 2 4 6 3 2 7 3 3 4 5 7 3 8 5 2 2 4 3 1 0 5 4 6 2 2 4 5 6 4 4 5 5 8 10 10 9 8 7 7 2 5 8 8 6 4 4 5 5 8 8 8 5 3 8 9 8 5 4 3 8 5 5 5 6 6 5 6 6 7 9 9 8 7 6 4 5 5 6 5 3 3 4
3 5 4 2 7 3 0 2 0 0 5 6 2 7 1 3 4 5 4 1 2 2 3 1 1 5 3 1 3 5 6 5 4 4 5 4 3 5 5 7 9 13 13 4 1 3 6 5 5 3 4 4 10 11 8 7 4 7 8 11 8 5 5 7 6 5 5 6 6 6 6 6 8 8 7 7 8 6 6 3 4 4 5 4 3 3
2 3 5 3 5 7 4 1 3 1 1 6 3 5 4 1 2 3 5 0 0 1 1 2 1 3 3 3 2 5 7 7 8 8 7 8 6 4 3 3 8 7 8 8 6 6 6 6 5 5 5 5 11 10 8 7 7 8 8 9 9 11 10 9 6 4 3 4 6 6 7 6 5 4 6 5 6 6 6 5 4 4 4 5 4 5
1 1 7 3 2 2 2 4 2 2 3 2 3 3 1 3 2 3 5 3 5 3 2 3 1 3 4 2 1 5 5 4 4 7 9 9 12 11 10 8 3 7 6 8 8 7 5 4 4 6 8 10 11 11 10 10 8 10 9 10 9 8 10 11 11 9 7 4 4 4 4 3 5 6 7 7 8 6 6 6 5 5 4 5 5 5
1 1 3 4 3 2 1 2 2 4 4 0 1 1 0 2 2 4 1 1 2 4 4 3 1 6 3 2 3 4 5 2 3 5 5 4 9 13 14 10 8 8 8 6 6 7 6 4 2 2 3 5 7 8 9 9 10 10 9 9 9 9 8 9 8 6 6 6 5 6 7 6 5 5 5 6 6 7 6 5 5 5 5 4 4 6
3 1 3 3 5 2 4 2 2 1 4 4 8 5 7 6 3 2 3 1 2 3 2 3 4 7 4 2 2 3 3 3 2 6 5 7 7 10 13 11 6 4 7 7 4 5 5 6 5 5 4 4 6 7 9 8 8 9 9 10 10 10 8 8 8 9 8 6 7 7 6 6 5 6 6 7 7 7 7 6 5 4 4 4 4 5
3 3 1 1 1 1 2 3 1 1 4 1 4 2 3 2 6 4 2 3 2 1 4 3 1 1 3 1 1 2 3 4 4 7 8 7 8 8 11 12 8 7 8 6 6 5 4 5 4 5 6 6 7 5 6 8 10 9 12 12 11 12 11 9 8 7 8 7 6 7 7 7 7 6 6 7 7 7 7 6 5 4 5 5 5 4
5 3 3 3 5 6 5 4 2 3 1 2 4 3 3 1 3 5 2 4 6 2 1 1 0 2 3 4 3 3 3 4 4 8 10 8 7 7 7 6 10 9 7 7 6 5 5 5 4 3 6 5 6 8 9 8 9 10 8 9 8 10 10 9 9 8 8 8 8 7 8 7 6 7 7 8 7 7 5 5 5 5 4 5 5 6
1 2 3 1 2 5 3 5 4 2 5 3 1 3 3 2 4 1 5 1 3 4 4 6 3 1 2 1 4 4 5 6 8 6 8 8 7 6 7 6 8 8 7 7 7 7 6 5 3 2 2 3 5 8 8 9 5 3 5 6 8 9 9 8 8 9 7 8 9 7 8 7 6 6 5 5 5 6 6 6 5 4 5 5 5 5
2 1 3 2 3 3 2 1 3 1 1 4 0 5 4 2 5 3 1 1 3 1 2 3 2 2 2 4 5 6 6 8 7 7 7 5 6 9 10 10 9 8 9 10 9 10 10 8 7 6 5 5 5 2 2 5 6 5 5 4 2 5 5 6 7 8 8 7 8 7 7 7 7 7 6 5 5 5 5 5 5 4 3 3 6 4
3 2 4 4 5 7 6 2 2 1 3 2 5 4 7 3 4 3 5 4 5 4 2 4 2 3 4 6 5 5 6 6 8 10 10 11 11 10 9 9 9 8 10 10 10 8 9 11 11 11 10 8 8 7 6 5 6 5 5 5 4 4 4 3 5 6 7 7 8 8 7 6 6 7 6 6 6 6 5 4 2 1 0 1 4 5
3 5 1 6 5 0 2 3 4 1 2 2 4 7 7 7 6 4 1 2 4 9 1 3 5 6 4 6 5 5 7 10 11 10 10 10 10 9 9 8 10 11 10 10 11 11 10 9 9 9 8 8 8 7 6 4 6 6 5 6 5 5 5 4 4 5 6 7 7 6 6 5 6 7 7 7 7 7 7 7 5 4 2 2 3 4
3 3 0 2 3 4 4 3 3 6 4 4 5 8 11 10 7 4 1 0 2 1 5 5 7 6 5 7 7 8 8 9 9 10 9 9 9 10 10 11 12 13 13 14 11 11 12 11 11 10 6 7 8 8 6 5 6 7 6 6 6 6 5 3 5 5 5 5 4 4 4 4 3 4 7 7 7 7 7 6 5 3 3 2 1 1
5 2 1 1 2 6 7 6 6 6 2 4 9 9 9 9 9 6 5 3 2 1 4 9 9 7 4 7 7 7 6 8 9 7 9 11 10 9 11 11 11 11 12 12 12 10 10 11 11 9 7 10 8 8 7 6 7 7 7 7 7 7 6 6 7 7 7 7 6 6 6 6 4 4 4 6 5 6 5 3 2 1 2 2 2 1
2 0 3 1 3 3 5 5 6 6 4 5 6 10 10 8 6 8 5 5 6 8 8 9 9 5 4 4 6 6 6 7 11 12 10 9 9 9 10 10 9 10 10 10 11 8 9 11 12 10 10 12 11 10 9 9 10 10 10 9 9 9 8 9 9 8 7 7 7 7 7 7 6 6 6 7 5 4 5 4 4 4 4 5 3 2
5 0 1 1 3 1 3 6 4 3 4 6 8 14 12 9 6 5 3 4 2 5 7 8 4 2 3 6 8 9 10 12 13 10 9 8 8 8 10 10 10 9 9 9 9 9 11 13 13 12 11 11 11 11 10 10 11 12 10 10 10 10 10 11 11 11 9 8 7 7 8 7 6 7 6 6 5 5 6 6 6 6 4 2 2 4
1 5 2 2 4 1 3 2 3 2 2 2 7 8 10 5 2 1 3 6 5 2 7 7 2 3 6 5 9 9 11 12 12 10 9 11 10 9 9 10 9 9 11 9 10 10 10 12 12 11 11 11 11 12 11 10 13 11 9 11 9 10 12 12 12 12 12 11 11 9 8 8 8 8 7 6 6 6 7 8 8 6 5 5 3 5
2 5 2 1 3 1 3 4 3 2 2 2 1 3 4 4 5 4 4 5 8 4 3 4 5 6 7 7 10 10 12 11 10 10 9 6 8 10 11 9 9 9 10 11 10 11 10 10 9 9 10 11 11 11 10 12 13 10 9 10 11 13 11 12 12 12 12 12 11 10 8 9 10 10 9 8 8 8 8 8 7 5 4 4 5 6
4 4 2 1 3 1 1 2 3 3 2 2 1 4 2 6 9 10 7 7 7 7 11 11 9 10 7 8 9 10 12 12 12 12 10 10 8 8 9 10 10 10 11 10 10 11 11 10 10 11 12 11 11 10 11 12 10 9 11 11 13 12 13 12 12 12 12 13 11 11 11 11 10 11 9 9 9 10 10 8 7 8 7 6 6 7
5 6 3 3 2 2 1 1 2 1 1 3 2 4 3 1 0 1 5 8 7 6 8 10 9 10 10 10 9 8 12 11 12 11 9 8 8 7 9 10 10 10 11 9 11 11 11 10 10 11 11 9 10 11 11 11 9 12 12 11 12 12 12 12 12 11 11 12 11 10 10 11 12 11 10 9 10 11 10 9 8 8 7 7 7 7
8 5 4 2 1 2 1 3 1 0 1 2 2 4 5 3 5 2 2 3 4 2 3 10 10 10 9 8 9 7 8 11 13 10 8 10 9 9 10 10 10 10 10 11 10 10 9 8 9 9 11 11 11 12 11 10 11 10 11 12 10 9 10 13 13 11 11 10 10 9 9 9 11 11 10 9 11 10 9 9 9 8 6 8 7 7
3 2 4 4 1 3 4 3 1 1 1 1 0 2 1 3 2 4 0 2 2 6 6 10 12 12 10 9 7 9 6 13 10 5 5 6 7 9 9 9 8 8 9 8 10 9 9 9 8 9 11 12 12 10 9 10 11 11 11 11 10 12 10 10 11 9 9 9 9 9 9 10 10 10 9 9 9 9 8 8 8 8 7 8 7 8
8 8 6 5 2 2 2 4 1 1 0 0 7 8 5 3 4 1 0 1 0 6 7 8 10 7 10 10 10 5 2 7 4 2 1 3 4 6 9 8 8 9 9 9 10 10 9 9 10 10 11 12 12 9 8 9 11 12 11 9 9 10 11 10 9 8 8 7 7 7 8 8 9 9 10 9 8 7 8 8 7 5 5 6 6 7
11 7 6 7 4 3 3 3 1 0 1 4 8 10 10 5 0 1 2 2 3 6 7 7 10 9 8 6 3 0 2 10 9 6 4 4 4 5 7 8 9 10 10 10 10 10 9 8 11 12 13 12 9 7 8 8 11 12 9 8 7 10 10 8 7 6 7 8 8 8 8 8 8 8 8 8 7 7 6 5 6 7 6 5 5 5
6 5 7 4 2 5 5 1 2 1 1 4 7 12 11 4 1 1 2 1 4 6 6 5 7 7 5 4 1 2 3 5 9 9 7 6 8 8 7 8 8 9 9 8 8 8 9 8 9 10 10 8 7 7 7 8 10 10 8 6 8 9 7 7 7 7 8 8 8 8 8 7 7 8 7 6 6 6 6 5 6 5 6 5 5 5
4 2 2 3 6 3 1 4 2 1 0 6 11 9 7 2 0 1 2 1 7 8 6 8 9 5 3 2 4 7 9 13 12 9 7 6 6 7 8 8 8 8 7 6 8 9 8 9 9 9 8 7 6 6 6 8 10 8 7 8 9 7 6 6 6 6 7 8 8 8 8 8 7 7 6 6 5 6 6 5 5 5 5 4 5 5
2 2 1 2 2 1 4 4 2 2 0 8 15 4 4 2 2 2 3 2 2 6 9 7 5 4 6 7 9 12 12 11 9 8 8 7 7 7 7 7 8 8 7 8 8 6 8 8 8 8 7 6 6 6 5 8 10 8 7 9 7 5 5 5 5 6 7 7 7 7 7 7 7 6 5 5 5 6 7 5 5 6 5 5 5 5
0 3 0 1 1 2 3 3 1 2 5 7 5 2 5 3 4 4 2 1 2 3 5 4 3 5 8 11 11 9 9 10 8 8 9 7 7 7 7 6 6 7 7 6 6 6 7 7 6 6 6 6 5 5 4 5 8 7 8 9 4 5 5 6 5 5 6 6 6 6 6 6 6 6 5 5 5 5 5 5 4 4 4 5 5 5
6 3 2 2 2 2 1 1 1 1 3 4 1 2 3 5 4 2 2 3 5 2 3 6 6 7 10 11 11 10 9 5 6 6 8 6 6 7 7 6 6 7 7 7 6 5 5 7 7 6 7 5 5 4 4 4 8 9 9 4 3 5 5 5 6 6 6 6 6 6 5 6 6 5 5 5 5 5 5 5 5 5 4 4 3 3
1 2 1 5 1 1 3 2 0 2 4 4 4 3 4 6 7 7 6 6 6 5 5 7 7 7 7 7 11 7 8 8 8 7 7 7 8 6 6 7 6 6 6 6 5 4 5 5 5 7 7 6 4 4 4 5 6 10 5 3 4 5 5 6 7 7 7 6 6 6 5 6 5 5 5 5 5 5 4 4 5 4 4 4 4 3
2 1 2 4 0 3 2 4 5 5 4 5 4 7 7 7 7 7 9 8 7 8 10 9 7 7 7 6 8 10 8 7 8 7 7 8 8 7 6 7 6 6 7 6 4 4 4 5 6 6 6 5 3 4 4 5 5 5 3 4 4 5 6 7 7 6 6 6 5 5 5 5 5 5 5 5 5 5 5 5 5 4 4 4 4 4
1 1 6 2 3 3 1 1 3 3 1 3 4 6 8 8 9 8 7 8 9 9 10 9 9 9 5 7 6 8 7 5 8 7 7 6 6 6 6 6 6 4 3 4 4 4 5 5 5 5 5 4 2 3 3 4 4 3 3 3 3 3 5 5 5 5 4 4 4 4 4 5 6 6 6 6 5 6 6 6 5 6 6 6 6 5
2 3 1 1 3 1 1 1 2 4 7 6 6 5 5 5 8 9 9 11 12 13 12 11 9 7 6 6 5 7 8 6 5 6 6 5 5 4 4 4 4 5 5 6 4 5 6 4 4 3 3 2 1 2 3 3 3 3 3 3 3 3 5 5 4 4 5 4 5 5 4 4 4 4 5 5 5 5 2 2 5 4 4 4 2 1
2 4 1 2 3 0 2 2 2 2 1 2 3 3 4 5 8 9 8 9 10 11 10 9 7 6 5 3 5 7 8 5 4 6 6 4 4 4 4 4 4 4 3 3 3 5 5 5 5 4 3 1 1 1 2 2 2 3 3 3 3 2 4 4 4 5 4 4 4 3 4 4 5 5 5 5 5 6 6 6 7 3 2 4 6 6
2 3 3 2 1 1 3 4 2 2 4 1 1 2 2 2 5 9 9 8 6 8 10 11 8 5 4 4 2 8 8 7 5 5 5 3 2 2 3 4 5 4 3 3 4 4 6 5 5 5 4 1 1 1 0 0 0 1 1 0 0 2 4 4 4 3 3 3 3 2 3 4 5 5 5 5 5 6 5 6 7 9 9 6 7 8
Wind_Direction
133 162 189 213 147 184 218 185 191 192 154 99 142 161 224 244 270 211 225 256 166 333 258 254 225 248 269 243 200 200 198 214 206 193 187 184 171 172 179 185 180 186 200 181 174 171 178 179 183 180 163 161 158 171 181 175 167 140 137 146 152 139 138 136 135 136 138 138 133 123 128 117 123 130 129 139 148 147 154 155 157 162 167 155 150 144
92 176 236 185 181 167 198 191 138 104 24 223 282 262 279 213 269 241 280 248 211 180 288 277 295 275 254 259 208 189 195 205 204 200 196 187 181 180 184 182 178 185 152 176 185 175 174 183 186 179 167 160 166 181 187 181 161 140 139 158 157 145 146 144 144 142 143 151 153 145 142 128 134 140 143 148 162 150 139 140 148 154 150 142 148 143
136 218 195 178 195 154 90 109 141 168 184 115 201 259 281 271 253 275 245 276 263 124 249 320 290 272 268 263 212 176 191 204 205 194 194 186 175 180 187 181 171 167 186 191 192 174 178 185 188 183 172 170 174 175 190 165 145 144 141 152 155 156 148 147 149 150 145 138 138 138 138 136 118 67 142 135 133 121 110 113 127 132 132 139 143 146
278 276 215 211 136 128 68 103 113 82 63 173 201 245 254 234 348 302 295 14 347 206 279 274 287 279 284 288 227 203 192 209 206 199 196 186 181 180 188 180 181 182 187 194 188 180 181 190 189 184 179 168 158 166 174 155 151 148 143 156 153 156 148 147 153 142 133 128 114 97 114 98 115 144 111 85 91 90 95 92 108 123 142 148 153 156
215 208 136 120 149 164 202 164 135 155 259 267 198 222 255 203 222 188 259 331 302 303 214 282 305 305 321 335 307 257 244 248 227 175 136 202 207 193 138 155 188 191 190 185 181 180 185 193 195 188 170 149 163 169 173 158 154 157 160 160 153 150 151 150 144 138 133 118 97 97 89 97 89 77 75 84 53 62 94 89 115 147 151 154 154 156
271 255 121 95 85 154 175 242 213 165 240 297 227 207 212 212 244 248 294 8 16 328 302 157 6 299 297 288 266 312 210 230 195 169 188 180 176 166 176 184 191 196 189 188 190 183 187 192 183 179 172 158 164 167 172 162 155 164 159 143 140 136 142 150 146 146 141 138 133 134 136 129 104 105 114 131 144 128 137 170 190 116 153 155 144 144
221 142 160 184 157 158 172 205 236 148 205 205 273 194 207 214 222 247 244 87 285 224 307 49 113 274 326 336 314 310 286 242 289 190 180 172 172 173 182 186 186 188 185 193 194 192 192 191 186 187 184 159 160 159 152 161 162 166 137 137 141 144 146 150 148 148 137 134 144 153 150 143 144 140 163 110 125 148 143 114 128 129 82 99 127 125
127 182 147 115 147 161 135 250 233 163 137 241 237 169 190 201 221 238 175 173 238 258 287 42 122 196 305 295 291 280 241 234 214 197 179 181 176 181 185 185 187 187 187 188 189 189 195 193 190 193 175 144 147 147 149 160 160 164 145 138 141 142 145 153 148 145 145 141 146 134 133 133 135 150 151 147 127 108 127 115 112 105 72 69 105 127
154 166 154 139 160 152 209 206 189 159 151 219 225 158 171 185 204 193 165 192 226 2 285 328 247 117 255 266 316 54 119 219 219 198 193 186 186 187 185 184 191 190 188 187 182 187 194 192 190 188 150 127 130 151 160 158 151 136 136 130 133 138 139 146 146 138 139 137 145 140 134 127 129 127 126 118 114 122 119 107 88 93 88 69 62 84
273 169 195 172 155 211 223 207 162 172 203 271 156 139 93 94 92 144 148 144 293 89 275 254 215 195 285 282 345 349 75 230 220 215 202 191 190 188 185 186 190 186 181 188 193 197 195 184 165 117 117 125 126 142 144 140 134 134 142 139 135 136 134 137 131 127 130 137 138 134 138 132 121 113 106 117 120 121 125 116 112 112 97 84 67 54
218 319 151 116 184 213 189 203 174 191 197 118 104 112 31 42 34 41 75 97 72 290 253 238 216 171 280 271 209 127 231 210 258 217 208 195 197 197 190 188 180 182 180 183 189 193 187 145 120 122 129 130 122 133 143 145 148 144 149 154 139 136 132 134 137 132 138 142 144 141 143 140 136 138 131 121 115 119 117 119 117 115 104 73 79 75
350 21 111 240 202 191 149 222 236 211 205 220 12 117 60 335 13 37 347 44 151 264 259 285 200 149 180 287 280 250 272 237 228 215 196 195 195 188 186 176 166 164 171 175 183 175 166 158 138 123 126 128 131 136 144 150 152 156 152 157 147 135 138 134 135 131 143 145 145 142 146 146 146 146 143 142 147 151 140 134 127 113 102 85 67 66
276 220 230 267 233 191 198 215 313 70 197 125 83 59 130 265 46 293 11 234 220 217 248 96 130 89 225 216 242 292 275 264 242 235 211 200 194 187 178 167 143 141 143 133 77 50 26 28 103 130 132 124 131 142 148 152 157 157 153 160 160 149 140 138 140 139 145 144 144 146 151 148 148 146 143 144 143 153 143 143 132 135 138 132 101 82
277 285 304 259 317 204 153 198 267 5 186 131 158 159 106 134 58 245 267 215 314 285 249 33 208 246 242 296 241 286 290 272 249 249 254 251 217 185 113 135 132 112 113 98 86 84 221 233 118 156 151 138 138 133 148 151 156 152 153 160 161 153 144 136 137 138 138 146 146 153 152 150 146 145 146 149 149 162 157 156 153 156 159 160 166 166
359 349 279 155 248 212 167 196 199 177 163 197 127 155 183 146 161 215 199 209 219 213 283 296 126 233 154 228 254 274 291 299 268 219 208 124 131 154 137 129 127 125 128 128 140 175 178 48 113 152 161 154 141 132 155 147 147 140 145 156 155 149 153 141 139 137 138 145 148 154 153 152 151 147 149 155 155 156 155 163 150 157 156 154 176 168
197 200 255 222 181 143 176 234 116 92 87 211 168 59 86 222 141 194 205 164 252 277 300 355 190 154 183 253 281 294 332 9 26 79 102 119 125 133 135 130 136 138 136 153 169 156 139 121 128 140 158 159 134 111 73 84 120 131 136 145 156 159 152 140 128 131 136 139 141 143 146 154 145 138 136 138 145 151 153 155 155 156 164 168 154 162
32 285 268 314 185 193 220 155 212 147 198 232 106 179 212 163 117 78 78 53 108 54 241 344 325 301 301 357 304 11 356 47 39 67 81 116 138 141 141 134 115 62 39 311 171 153 136 125 137 148 154 156 110 88 71 27 100 128 132 131 129 126 127 100 102 106 115 129 134 142 146 149 146 148 152 154 156 153 149 147 148 145 150 141 145 135
143 242 290 83 305 295 340 178 206 168 144 92 174 235 110 95 117 129 207 354 72 166 251 40 266 305 24 223 319 45 27 47 75 68 76 65 121 145 145 136 126 141 167 157 336 92 115 126 134 132 136 139 117 122 160 133 135 117 125 141 148 128 94 88 97 93 122 138 139 148 159 168 162 156 148 146 147 140 130 108 102 103 127 149 137 119
134 323 300 241 230 270 344 117 5 360 352 150 201 173 115 263 223 320 95 244 144 259 266 329 279 262 172 249 9 45 19 16 22 35 50 42 6 16 13 58 104 115 111 122 136 133 121 131 150 147 142 140 122 138 137 124 127 114 108 101 108 110 101 93 85 82 100 149 150 159 167 162 142 132 139 140 133 132 133 139 139 145 142 126 130 120
25 177 293 295 180 317 355 61 239 277 328 30 101 81 325 106 156 130 197 169 123 221 67 292 31 248 221 205 347 326 352 21 59 43 62 60 61 52 26 3 21 89 106 117 123 116 111 110 137 160 155 150 144 142 141 136 131 124 122 125 131 126 126 132 145 157 157 152 139 137 128 144 149 151 148 146 140 137 143 153 147 141 142 157 139 129
123 109 221 279 295 357 286 350 250 161 147 33 105 302 15 37 214 105 31 81 174 169 176 163 304 277 274 251 322 331 323 18 96 83 71 63 74 75 65 41 19 35 50 59 100 108 111 105 83 51 60 102 123 129 133 138 139 135 126 128 139 142 142 144 156 138 134 135 144 153 160 151 139 140 142 138 129 132 147 153 155 157 152 139 143 134
84 90 196 311 2 341 240 247 228 216 192 168 160 194 172 119 128 153 252 19 89 97 200 130 236 268 266 288 355 340 335 60 86 109 80 81 84 97 88 68 42 38 50 66 38 100 114 114 112 105 96 86 107 131 143 134 120 115 125 148 158 155 163 152 156 151 149 153 154 152 136 128 132 149 148 138 136 144 152 159 152 145 140 153 161 138
142 152 99 276 195 251 246 271 252 102 94 166 136 172 149 118 101 99 149 239 48 32 111 155 113 281 258 135 36 54 47 70 82 90 79 68 62 77 101 118 108 72 79 64 59 64 81 110 123 137 130 124 115 107 93 95 121 150 161 161 163 159 164 163 158 144 141 145 149 145 141 141 151 154 150 141 147 154 160 155 136 143 157 158 160 133
84 70 26 301 313 294 310 284 318 28 31 16 8 52 102 162 179 166 167 183 137 183 90 5 160 240 307 39 56 97 76 41 49 89 87 65 63 64 80 99 102 86 62 56 41 36 42 46 46 89 112 110 131 111 106 116 155 169 153 150 150 153 156 152 148 147 147 147 147 146 142 145 147 148 153 153 158 160 152 141 149 153 165 164 159 143
97 290 115 36 2 337 342 353 1 336 50 76 340 321 327 75 56 162 106 73 98 209 165 124 228 270 288 26 77 125 77 69 84 89 107 114 104 81 77 75 84 93 85 73 74 56 33 31 48 35 51 101 119 112 138 161 146 115 124 136 148 159 161 150 143 143 148 149 146 148 144 139 138 138 137 139 141 146 142 145 148 156 170 158 150 129
88 198 109 129 141 151 199 265 261 296 279 295 36 342 4 54 134 105 163 82 176 275 98 132 232 256 221 112 90 83 91 76 72 64 28 33 72 87 76 57 50 51 46 43 33 32 29 23 16 26 52 46 31 18 96 74 75 96 99 106 117 141 138 139 142 146 144 143 142 142 141 142 139 135 132 130 125 132 131 133 151 161 172 165 137 115
115 57 74 143 160 190 203 225 262 151 357 53 306 25 336 343 333 99 100 90 191 183 83 234 179 144 128 109 94 70 71 77 65 53 52 51 53 60 63 58 54 53 57 56 58 58 48 28 22 18 26 46 52 53 58 45 69 84 102 95 79 72 89 110 129 134 135 134 144 145 149 145 137 130 124 120 111 96 87 83 70 46 81 108 124 125
68 70 38 102 73 182 269 246 263 227 109 11 20 338 341 350 331 73 119 180 157 108 270 246 188 139 146 108 97 86 66 52 50 54 55 52 49 52 59 68 67 63 57 55 46 40 47 42 32 29 35 48 64 62 65 64 71 45 58 72 63 73 92 97 117 131 138 140 142 141 137 131 135 130 122 101 82 78 74 63 55 46 66 84 103 122
128 114 292 80 43 33 20 23 41 91 79 98 54 26 11 353 10 89 220 220 116 117 204 181 144 128 71 32 39 59 71 74 67 63 59 64 51 47 49 57 58 57 52 48 34 32 33 29 32 12 10 63 63 73 67 57 70 76 55 63 66 62 45 66 87 80 70 65 71 75 86 89 80 84 91 90 95 84 70 67 64 35 14 56 49 107
92 58 140 116 125 35 14 14 23 74 102 55 38 28 19 24 28 46 63 23 4 119 128 117 94 67 36 41 45 51 66 86 78 66 64 55 50 52 53 48 47 54 55 54 45 36 38 38 30 16 21 58 51 39 51 52 57 66 67 65 66 64 57 66 67 72 70 69 69 70 65 67 62 67 66 77 67 90 96 87 89 78 32 19 9 303
95 232 109 90 66 1 349 351 30 36 81 77 30 26 20 12 40 35 62 53 49 64 80 101 97 77 34 37 61 46 50 73 67 53 56 54 56 62 67 60 54 56 55 54 52 38 44 48 41 29 45 55 53 52 47 49 51 54 49 48 50 49 52 64 66 67 75 78 82 82 79 77 71 56 60 69 68 84 113 114 98 72 48 36 359 353
68 139 43 89 79 330 340 359 352 38 78 83 36 13 1 3 27 350 19 344 317 143 115 98 106 151 114 82 68 47 51 57 61 55 51 55 55 62 67 66 64 54 51 50 47 41 45 48 46 37 39 48 54 55 53 54 53 51 47 50 54 58 58 59 58 54 45 46 61 71 75 81 78 79 73 79 81 80 95 94 89 82 87 89 47 31
83 122 93 88 87 274 304 322 343 356 38 353 9 342 331 310 267 320 5 7 356 301 135 159 211 79 130 109 92 62 63 64 58 46 59 59 50 53 63 66 64 60 54 46 50 44 42 46 47 41 41 45 48 55 50 61 61 51 48 58 55 63 63 61 59 58 52 45 45 44 51 61 74 70 66 61 70 74 78 83 76 69 58 47 46 68
70 106 99 4 118 208 321 323 334 57 217 225 9 332 343 328 332 62 27 347 351 15 101 59 83 73 64 68 82 85 72 65 65 53 35 47 70 70 63 55 57 59 62 57 47 51 49 52 49 44 49 49 47 52 54 60 67 59 57 61 59 64 61 66 61 63 60 55 47 45 41 54 64 61 52 45 49 52 54 62 64 62 56 53 41 51
103 85 92 109 97 156 324 3 58 197 234 139 211 21 349 74 74 81 70 37 52 81 102 90 84 86 84 89 97 99 96 82 66 55 39 34 46 62 69 62 54 56 61 56 52 54 56 53 54 54 50 43 45 48 52 55 56 64 56 56 62 59 65 62 64 61 62 62 54 50 51 54 55 61 53 51 56 64 53 39 44 45 34 47 43 38
131 114 157 51 95 72 60 55 139 254 334 360 55 22 351 152 107 227 64 53 45 59 106 101 108 117 116 112 105 103 100 99 77 52 41 38 40 54 66 63 58 52 56 51 62 57 58 53 54 55 57 48 50 52 51 54 46 61 62 58 63 63 62 65 63 57 57 61 53 52 49 61 62 56 53 48 53 52 53 48 38 37 24 43 43 40
127 103 101 94 353 145 147 88 161 295 13 31 4 12 11 1 344 16 41 337 48 96 111 127 127 123 121 119 123 124 116 90 71 44 32 40 44 46 56 60 58 59 64 62 57 59 60 57 60 62 63 57 50 50 52 54 51 55 61 60 55 59 61 63 60 54 54 56 53 52 51 50 65 63 55 55 55 49 44 45 37 32 22 44 39 41
26 132 201 104 326 109 129 81 56 359 223 60 181 294 349 283 266 257 182 10 60 88 119 134 135 137 134 139 141 138 129 84 69 49 19 43 54 66 57 60 57 59 60 62 63 59 59 61 57 54 63 61 52 44 48 60 64 52 53 55 55 61 55 55 59 55 55 57 52 55 58 61 61 65 58 53 53 53 44 41 40 37 24 45 37 39
36 70 80 103 128 49 56 111 141 158 313 108 316 316 310 323 265 166 63 40 21 123 136 140 135 144 147 150 163 180 177 91 121 138 133 58 57 79 87 71 66 63 59 59 63 59 49 56 60 64 64 64 58 43 46 55 69 67 55 45 51 60 63 61 60 54 58 56 56 57 60 64 70 73 71 67 59 55 54 43 40 29 30 36 39 39
38 10 25 51 44 49 128 75 110 280 334 329 321 318 320 318 285 110 35 296 212 142 144 144 144 147 163 151 157 295 103 136 163 162 121 108 90 74 86 85 74 65 61 58 53 58 54 50 59 55 55 56 50 42 46 53 63 63 59 44 44 62 60 54 53 56 63 64 60 60 56 55 58 62 68 70 68 58 55 55 54 41 42 36 35 37
3 356 41 83 111 49 71 79 44 355 356 344 320 315 311 292 184 81 166 245 172 139 142 150 157 160 153 143 321 92 9 83 110 115 126 130 110 99 93 85 80 79 75 65 67 71 68 59 61 61 58 53 46 43 45 56 62 62 60 53 51 49 44 46 50 51 55 56 58 57 56 54 59 63 63 61 64 68 63 49 49 48 49 40 30 36
19 56 355 55 31 39 341 101 142 199 239 330 318 310 287 345 131 260 314 308 151 139 144 162 159 157 120 75 87 89 104 107 119 129 129 118 106 105 99 95 88 77 71 75 78 76 69 65 64 65 60 54 59 58 58 70 78 70 67 62 54 39 34 48 56 58 58 58 58 56 51 51 49 49 50 45 51 62 61 51 50 48 50 43 45 40
306 79 337 19 304 48 24 58 28 21 300 21 323 322 21 57 284 286 320 24 118 140 145 160 162 127 105 90 100 111 111 116 120 119 115 121 122 118 114 113 113 110 102 92 83 85 95 85 71 63 58 43 43 42 43 64 71 68 68 66 55 51 56 60 65 67 68 65 60 58 54 50 47 45 45 46 44 50 47 34 39 38 44 47 48 50
258 83 359 304 195 118 40 50 90 294 314 331 5 48 319 293 284 292 79 45 60 118 135 122 50 95 110 117 118 110 110 113 105 111 109 107 109 106 103 105 106 106 105 98 100 102 93 88 82 75 59 53 49 48 47 68 85 82 74 61 51 70 72 70 69 71 69 64 60 57 55 53 52 50 47 43 46 53 54 41 36 42 33 32 31 22
335 92 178 135 299 91 124 191 294 288 297 312 322 251 277 316 347 341 87 89 120 57 12 86 83 91 113 119 112 114 107 87 105 107 109 112 106 107 110 111 113 111 107 107 105 99 95 100 95 87 70 56 58 50 55 65 85 82 74 56 67 74 77 74 67 66 61 55 48 45 43 46 44 44 45 44 46 52 42 38 32 40 27 36 38 36
99 116 113 81 40 54 77 91 16 354 341 351 18 3 16 21 28 43 58 73 41 60 67 96 89 95 98 101 110 95 105 117 103 95 95 96 98 96 104 99 92 93 98 102 98 97 102 95 89 87 84 61 53 61 56 52 68 79 78 68 69 68 70 66 63 58 55 53 51 44 40 44 33 33 30 31 34 43 47 41 29 33 19 31 29 27
312 57 58 92 10 49 343 340 17 337 331 346 27 48 47 49 50 60 72 67 71 78 85 79 86 83 80 90 106 116 119 119 114 110 112 114 115 122 122 121 120 128 130 124 131 122 104 99 89 83 81 75 36 57 54 63 56 73 77 58 55 66 64 61 60 58 49 47 46 39 39 44 31 23 20 23 20 26 27 27 29 21 11 15 12 4
10 117 75 83 62 99 177 327 319 317 332 355 11 61 62 62 62 58 70 79 82 74 71 74 77 73 76 83 91 99 96 98 109 110 109 117 128 130 131 129 127 101 93 124 138 113 96 91 100 101 94 89 52 67 75 67 59 50 59 44 30 51 71 67 69 72 61 52 54 44 36 36 30 31 23 17 23 20 11 11 17 13 0 354 347 352
270 24 62 304 84 332 338 305 358 42 37 17 19 42 62 79 85 74 69 71 72 74 66 53 47 61 65 70 78 88 79 54 74 103 109 116 120 120 121 122 121 128 137 125 126 120 117 111 93 91 94 70 2 37 63 50 30 17 29 17 34 39 64 64 61 62 49 38 45 30 25 34 30 27 21 9 8 1 355 18 348 350 337 318 291 291
53 53 189 52 44 359 182 197 152 83 41 22 6 25 70 75 85 85 83 87 95 91 87 86 63 53 61 57 100 103 104 96 87 99 97 106 121 125 117 115 122 119 110 104 103 100 102 105 110 95 79 4 350 3 31 19 355 351 350 6 10 43 75 69 60 53 37 36 43 20 25 19 18 14 10 4 359 359 346 339 344 333 324 306 320 328
97 196 136 60 131 344 253 229 142 140 131 201 190 354 13 32 103 106 108 108 101 117 126 120 116 89 67 46 58 113 113 114 115 103 93 94 102 139 152 135 129 125 124 117 108 100 111 121 114 105 91 107 175 177 158 301 319 359 346 304 219 125 119 112 91 80 56 55 38 19 27 21 14 5 359 358 358 357 353 336 335 331 320 312 314 313